EW8310 Weather Reports


Display with metric or nautical units.
time (UTC)temp
F
wind
direction
speed
MPH
gust
MPH
rain 1hr
in
rain 24hr
in
rain mn
in
humidity
%
barometer
mb
20260901192334 90 338 2.0 5.0 0.00 0.19 0.00 41 1012.5
20260901191611 89 30 0.0 3.0 0.00 0.21 0.00 40 1012.5
20260901191111 89 307 0.0 6.0 0.00 0.22 0.00 39 1012.5
20260901190611 89 240 3.0 6.0 0.00 0.23 0.00 41 1012.6
20260901190111 91 303 2.0 6.0 0.00 0.26 0.00 40 1012.6
20260901190100 90 245 0.0 6.0 0.00 0.36 0.00 41 1012.7
20260901185110 90 230 2.0 6.0 0.00 0.38 0.00 40 1012.7
20260901184611 89 285 0.0 4.0 0.00 0.39 0.00 42 1012.7
20260901184111 88 340 0.0 3.0 0.00 0.40 0.00 42 1012.7
20260901183611 89 17 1.0 4.0 0.00 0.41 0.00 42 1012.8
20260901183111 90 243 1.0 4.0 0.00 0.45 0.00 40 1012.9
20260901182610 90 176 1.0 4.0 0.00 0.45 0.00 40 1012.9
20260901182332 89 138 1.0 4.0 0.00 0.45 0.00 41 1012.9
20260901181610 88 182 2.0 5.0 0.00 0.45 0.00 43 1012.9
20260901181110 88 279 3.0 5.0 0.00 0.45 0.00 42 1012.9
20260901180611 89 223 1.0 5.0 0.00 0.45 0.00 41 1012.9
20260901180335 89 125 2.0 5.0 0.00 0.45 0.00 41 1013.0
20260901175830 89 178 0.0 5.0 0.00 0.45 0.00 43 1013.1
20260901175110 89 155 2.0 5.0 0.00 0.45 0.00 42 1013.1
20260901174831 88 200 2.0 5.0 0.00 0.45 0.00 44 1013.1
20260901174109 88 235 0.0 0.0 0.00 0.45 0.00 44 1013.1
20260901173609 86 305 0.0 1.0 0.00 0.45 0.00 46 1013.0
20260901173109 86 334 0.0 1.0 0.00 0.45 0.00 46 1013.3
20260901172609 86 20 0.0 4.0 0.00 0.45 0.00 45 1013.3
20260901172546 86 275 1.0 4.0 0.00 0.45 0.00 44 1013.1
20260901171608 86 293 1.0 3.0 0.00 0.45 0.00 44 1013.3
20260901171336 86 172 0.0 4.0 0.00 0.45 0.00 44 1013.3
20260901170608 87 288 1.0 4.0 0.00 0.45 0.00 44 1013.1
20260901170331 87 228 1.0 4.0 0.00 0.45 0.00 43 1013.1
20260901165608 87 213 2.0 4.0 0.00 0.45 0.00 42 1013.1
20260901165325 87 193 0.0 3.0 0.00 0.45 0.00 45 1013.1
20260901164607 86 151 0.0 3.0 0.00 0.45 0.00 47 1013.1
20260901164108 85 202 0.0 2.0 0.00 0.45 0.00 50 1013.1
20260901163607 85 268 0.0 2.0 0.00 0.45 0.00 50 1013.1
20260901163107 85 268 0.0 2.0 0.00 0.45 0.00 50 1013.1
20260901162608 85 183 0.0 0.0 0.00 0.45 0.00 51 1013.1
20260901162107 84 185 0.0 1.0 0.00 0.45 0.00 54 1013.1
20260901161608 83 117 0.0 1.0 0.00 0.45 0.00 54 1013.1
20260901161330 83 90 0.0 0.0 0.00 0.45 0.00 56 1013.1
20260901160607 83 90 0.0 2.0 0.00 0.45 0.00 56 1013.3
20260901160107 82 154 0.0 2.0 0.00 0.45 0.00 57 1013.1
20260901155606 82 154 0.0 2.0 0.00 0.45 0.00 58 1013.3
20260901155107 81 83 0.0 1.0 0.00 0.45 0.00 59 1013.1
20260901155053 81 128 0.0 1.0 0.00 0.45 0.00 60 1013.1
20260901154106 81 154 0.0 2.0 0.00 0.45 0.00 60 1013.1
20260901153607 80 154 1.0 2.0 0.00 0.45 0.00 60 1013.3
20260901153337 79 155 0.0 1.0 0.00 0.45 0.00 64 1013.1
20260901152606 78 82 0.0 1.0 0.00 0.45 0.00 64 1013.3
20260901152106 78 131 0.0 1.0 0.00 0.45 0.00 65 1013.1
20260901151826 78 102 0.0 0.0 0.00 0.45 0.00 65 1013.3
20260901151105 78 102 0.0 0.0 0.00 0.45 0.00 64 1013.1
20260901150606 78 221 0.0 0.0 0.00 0.45 0.00 64 1013.1
20260901150105 78 97 0.0 0.0 0.00 0.45 0.00 66 1013.1
20260901145605 77 97 0.0 0.0 0.00 0.45 0.00 68 1013.1
20260901145105 76 96 0.0 0.0 0.00 0.45 0.00 69 1013.3
20260901144604 76 97 0.0 0.0 0.00 0.45 0.00 70 1013.1
20260901144105 75 100 0.0 0.0 0.00 0.45 0.00 72 1013.3
20260901143605 74 100 0.0 0.0 0.00 0.45 0.00 72 1013.1
20260901143104 74 90 0.0 0.0 0.00 0.45 0.00 73 1013.1
20260901142605 74 120 0.0 0.0 0.00 0.45 0.00 74 1013.1
20260901142314 73 82 0.0 0.0 0.00 0.45 0.00 77 1013.0
20260901142158 73 82 0.0 0.0 0.00 0.45 0.00 76 1013.1
20260901141104 72 79 0.0 0.0 0.00 0.45 0.00 79 1013.0
20260901140604 72 103 0.0 0.0 0.00 0.45 0.00 79 1013.0
20260901140104 72 106 0.0 0.0 0.00 0.45 0.00 81 1012.9
20260901135603 71 106 0.0 0.0 0.00 0.45 0.00 82 1012.9
20260901135104 71 106 0.0 0.0 0.00 0.45 0.00 83 1012.9
20260901134603 70 107 0.0 1.0 0.00 0.45 0.00 85 1012.9
20260901134104 69 107 0.0 1.0 0.00 0.45 0.00 87 1012.9
20260901133603 69 124 0.0 0.0 0.00 0.45 0.00 89 1012.9
20260901133104 68 124 0.0 0.0 0.00 0.45 0.00 90 1012.8
20260901132603 67 124 0.0 0.0 0.00 0.45 0.00 90 1012.7
20260901132103 67 124 0.0 0.0 0.00 0.45 0.00 89 1012.7
20260901131603 67 124 0.0 0.0 0.00 0.45 0.00 89 1012.5
20260901131103 68 124 0.0 0.0 0.00 0.46 0.00 88 1012.4
20260901130602 68 124 0.0 0.0 0.00 0.46 0.00 87 1012.4
20260901125603 68 124 0.0 0.0 0.00 0.48 0.00 86 1012.2
20260901125102 69 125 0.0 0.0 0.00 0.48 0.00 86 1012.2
20260901124602 69 8 0.0 0.0 0.00 0.51 0.00 86 1012.1
20260901124102 69 8 0.0 0.0 0.00 0.52 0.00 87 1012.0
20260901123601 68 8 0.0 0.0 0.00 0.52 0.00 87 1011.8
20260901123102 69 8 0.0 0.0 0.00 0.53 0.00 87 1011.8
20260901122602 69 8 0.0 0.0 0.00 0.53 0.00 86 1011.7
20260901122101 69 8 0.0 0.0 0.00 0.54 0.00 86 1011.7
20260901121601 69 8 0.0 0.0 0.00 0.54 0.00 85 1011.7
20260901121102 69 8 0.0 1.0 0.00 0.54 0.00 84 1011.7
20260901120601 69 32 0.0 3.0 0.00 0.54 0.00 84 1011.7
20260901115601 69 35 0.0 0.0 0.00 0.54 0.00 86 1011.7
20260901115102 69 37 0.0 0.0 0.00 0.54 0.00 86 1011.7
20260901114601 69 39 0.0 0.0 0.00 0.57 0.00 87 1011.7
20260901114101 68 39 0.0 0.0 0.00 0.75 0.00 90 1011.8
20260901113601 67 321 0.0 0.0 0.00 0.86 0.00 90 1011.8
20260901113100 68 321 0.0 0.0 0.00 0.89 0.00 90 1012.0
20260901112600 68 323 0.0 0.0 0.00 0.89 0.00 89 1011.8
20260901112100 68 321 0.0 0.0 0.00 0.89 0.00 89 1011.8
20260901111600 68 323 0.0 0.0 0.00 0.89 0.00 89 1011.8
20260901111100 68 321 0.0 0.0 0.00 0.89 0.00 90 1012.0
20260901110821 68 321 0.0 0.0 0.00 0.89 0.00 90 1012.0
20260901110059 68 323 0.0 0.0 0.00 0.89 0.00 89 1011.8
20260901105559 68 321 0.0 0.0 0.00 0.89 0.00 89 1011.8
20260901105059 68 321 0.0 0.0 0.00 0.89 0.00 89 1011.7
20260901104822 68 321 0.0 0.0 0.00 0.89 0.00 89 1011.8
20260901104059 68 323 0.0 0.0 0.00 0.89 0.00 89 1011.7
20260901103600 68 321 0.0 0.0 0.00 0.89 0.00 89 1011.7
20260901103059 68 321 0.0 0.0 0.00 0.89 0.00 89 1011.6
20260901102559 68 321 0.0 0.0 0.00 0.89 0.00 90 1011.6
20260901102059 68 321 0.0 0.0 0.00 0.89 0.00 90 1011.5
20260901101558 68 321 0.0 0.0 0.00 0.89 0.00 90 1011.5
20260901101319 68 321 0.0 0.0 0.00 0.89 0.00 90 1011.5
20260901100559 68 321 0.0 0.0 0.00 0.89 0.00 90 1011.5
20260901100058 68 323 0.0 0.0 0.00 0.89 0.00 90 1011.6
20260901095558 68 321 0.0 0.0 0.00 0.89 0.00 89 1011.5
20260901095059 68 321 0.0 0.0 0.00 0.89 0.00 89 1011.5
20260901094558 68 321 0.0 0.0 0.00 0.89 0.00 90 1011.6
20260901094058 68 321 0.0 0.0 0.00 0.89 0.00 90 1011.6
20260901093558 68 321 0.0 0.0 0.00 0.89 0.00 89 1011.6
20260901093057 68 321 0.0 0.0 0.00 0.89 0.00 89 1011.5
20260901092558 68 323 0.0 0.0 0.00 0.89 0.00 88 1011.5
20260901092058 68 321 0.0 0.0 0.00 0.89 0.00 88 1011.4
20260901091557 68 321 0.0 0.0 0.00 0.89 0.00 87 1011.5
20260901091057 68 321 0.0 0.0 0.00 0.89 0.00 87 1011.5
20260901090557 68 321 0.0 0.0 0.00 0.89 0.00 86 1011.6
20260901090057 69 321 0.0 0.0 0.00 0.89 0.00 85 1011.6
20260901085557 69 321 0.0 0.0 0.00 0.89 0.00 84 1011.5
20260901085057 69 321 0.0 0.0 0.00 0.89 0.00 84 1011.5
20260901084556 69 321 0.0 0.0 0.00 0.89 0.00 83 1011.6
20260901084057 69 321 0.0 0.0 0.00 0.89 0.00 83 1011.6
20260901083556 69 321 0.0 0.0 0.00 0.89 0.00 83 1011.7
20260901083057 70 321 0.0 0.0 0.00 0.89 0.00 83 1011.7
20260901082556 70 321 0.0 0.0 0.00 0.89 0.00 84 1011.6
20260901082317 70 321 0.0 0.0 0.00 0.89 0.00 83 1011.6
20260901082042 70 283 0.0 0.0 0.00 0.89 0.00 83 1011.7
20260901081056 70 283 0.0 0.0 0.00 0.89 0.00 83 1011.6
20260901080555 70 107 0.0 0.0 0.00 0.89 0.00 84 1011.7
20260901080056 71 109 0.0 0.0 0.00 0.89 0.00 83 1011.6
20260901075556 71 109 0.0 0.0 0.00 0.89 0.00 83 1011.6
20260901075055 71 109 0.0 0.0 0.00 0.89 0.00 82 1011.6
20260901074819 72 109 0.0 0.0 0.00 0.89 0.00 81 1011.6
20260901074055 72 109 0.0 0.0 0.00 0.89 0.00 79 1011.7
20260901073555 72 109 0.0 1.0 0.00 0.89 0.00 79 1011.6
20260901073546 72 109 0.0 1.0 0.00 0.89 0.00 78 1011.8
20260901072554 73 145 0.0 2.0 0.00 0.89 0.00 77 1011.8
20260901071555 73 96 0.0 2.0 0.00 0.89 0.00 74 1011.7
20260901071054 74 151 0.0 1.0 0.00 0.89 0.00 67 1011.7
20260901070554 74 87 0.0 1.0 0.00 0.89 0.00 67 1011.7
20260901070054 74 75 0.0 0.0 0.00 0.89 0.00 67 1011.7
20260901065554 74 75 0.0 1.0 0.00 0.89 0.89 67 1011.7
20260901065054 74 31 0.0 1.0 0.00 0.89 0.89 68 1011.7
20260901064554 74 85 0.0 1.0 0.00 0.89 0.89 68 1011.8
20260901064053 74 79 0.0 1.0 0.00 0.89 0.89 68 1011.8
20260901063554 74 86 0.0 1.0 0.00 0.89 0.89 67 1012.0
20260901063054 74 49 0.0 2.0 0.00 0.89 0.89 67 1012.1
20260901062554 75 76 0.0 2.0 0.00 0.89 0.89 66 1012.0
20260901062055 74 69 0.0 4.0 0.00 0.89 0.89 67 1012.1
20260901061557 74 39 1.0 4.0 0.00 0.89 0.89 67 1012.1
20260901061053 74 85 0.0 1.0 0.00 0.89 0.89 67 1012.0
20260901060811 75 83 0.0 2.0 0.00 0.89 0.89 66 1012.1
20260901060316 75 68 0.0 4.0 0.00 0.89 0.89 64 1012.0
20260901055553 75 42 1.0 4.0 0.00 0.89 0.89 67 1012.1
20260901055052 75 47 0.0 6.0 0.00 0.89 0.89 67 1012.0
20260901054552 75 54 3.0 6.0 0.00 0.89 0.89 67 1012.0
20260901054311 75 49 0.0 4.0 0.00 0.89 0.89 68 1012.0
20260901053552 74 1 1.0 4.0 0.00 0.89 0.89 68 1011.8
20260901053052 74 23 1.0 3.0 0.00 0.89 0.89 69 1012.0
20260901052552 74 32 0.0 1.0 0.00 0.89 0.89 71 1012.0
20260901052052 74 38 0.0 1.0 0.00 0.89 0.89 72 1012.0
20260901051551 74 38 0.0 1.0 0.00 0.89 0.89 72 1012.1
20260901051051 74 89 0.0 0.0 0.00 0.89 0.89 72 1012.1
20260901050812 74 69 0.0 0.0 0.00 0.89 0.89 73 1012.1
20260901050051 74 39 0.0 0.0 0.00 0.89 0.89 74 1012.0
20260901045552 74 38 0.0 2.0 0.00 0.89 0.89 73 1012.2
20260901045051 74 39 0.0 2.0 0.00 0.89 0.89 72 1012.2
20260901044551 74 49 0.0 1.0 0.00 0.89 0.89 73 1012.3
20260901044051 74 37 0.0 2.0 0.00 0.89 0.89 73 1012.4
20260901043551 74 54 0.0 3.0 0.00 0.89 0.89 74 1012.4
20260901043051 74 20 0.0 3.0 0.00 0.89 0.89 73 1012.3
20260901042551 74 31 0.0 3.0 0.00 0.89 0.89 74 1012.3
20260901042050 74 42 0.0 2.0 0.00 0.89 0.89 74 1012.3
20260901041551 74 49 0.0 2.0 0.00 0.89 0.89 74 1012.3
20260901041314 74 38 0.0 3.0 0.00 0.89 0.89 76 1012.2
20260901040810 74 31 1.0 3.0 0.00 0.89 0.89 77 1012.3
20260901040050 74 25 0.0 0.0 0.00 0.89 0.89 78 1012.2
20260901035550 74 25 0.0 0.0 0.00 0.89 0.89 79 1012.1
20260901035051 74 58 0.0 0.0 0.00 0.89 0.89 79 1012.0
20260901034550 74 59 0.0 1.0 0.00 0.89 0.89 79 1012.0
20260901034051 73 38 0.0 1.0 0.00 0.89 0.89 80 1012.0
20260901033550 73 358 0.0 0.0 0.00 0.89 0.89 81 1011.8
20260901033049 73 358 0.0 0.0 0.00 0.89 0.89 79 1011.8
20260901032549 73 358 0.0 0.0 0.00 0.89 0.89 79 1011.7
20260901032049 74 358 0.0 0.0 0.00 0.89 0.89 79 1011.8
20260901031550 74 358 0.0 0.0 0.00 0.89 0.89 79 1011.8
20260901031309 74 358 0.0 0.0 0.00 0.89 0.89 77 1011.7
20260901030549 74 38 0.0 0.0 0.00 0.89 0.89 78 1011.5
20260901030053 74 39 0.0 0.0 0.00 0.89 0.89 77 1011.5
20260901025809 74 38 0.0 0.0 0.00 0.89 0.89 78 1011.4
20260901025049 74 39 0.0 0.0 0.00 0.89 0.89 77 1011.4
20260901024548 74 39 0.0 0.0 0.00 0.89 0.89 78 1011.3
20260901024049 74 39 0.0 0.0 0.00 0.89 0.89 80 1011.1
20260901023548 74 39 0.0 0.0 0.00 0.89 0.89 80 1011.1
20260901023047 74 39 0.0 0.0 0.00 0.89 0.89 79 1010.9
20260901022548 74 39 0.0 0.0 0.00 0.89 0.89 79 1010.9
20260901022048 74 39 0.0 0.0 0.00 0.89 0.89 78 1010.8
20260901021808 74 219 0.0 0.0 0.00 0.89 0.89 79 1010.9
20260901021047 74 219 0.0 0.0 0.00 0.89 0.89 78 1010.8
20260901020547 74 219 0.0 0.0 0.00 0.89 0.89 78 1010.8
20260901020048 74 219 0.0 0.0 0.00 0.89 0.89 78 1010.5
20260901015547 75 219 0.0 0.0 0.00 0.89 0.89 78 1010.5
20260901015306 75 219 0.0 0.0 0.00 0.89 0.89 76 1010.4
20260901014547 76 219 0.0 0.0 0.00 0.89 0.89 75 1010.2
20260901014046 76 219 0.0 0.0 0.00 0.89 0.89 74 1010.1
20260901013546 76 219 0.0 0.0 0.00 0.89 0.89 73 1010.0
20260901013047 76 219 0.0 0.0 0.00 0.89 0.89 72 1010.1
20260901012546 76 219 0.0 0.0 0.00 0.89 0.89 72 1009.9
20260901012047 77 219 0.0 0.0 0.00 0.89 0.89 71 1009.9
20260901011546 77 219 0.0 0.0 0.00 0.89 0.89 69 1010.0
20260901011046 77 219 0.0 0.0 0.00 0.89 0.89 70 1010.0
20260901010546 77 219 0.0 0.0 0.00 0.89 0.89 67 1009.9
20260901010046 77 219 0.0 0.0 0.00 0.89 0.89 67 1009.9
20260901005546 77 219 0.0 0.0 0.00 0.89 0.89 68 1009.9
20260901005045 78 219 0.0 0.0 0.00 0.89 0.89 67 1009.9
20260901004545 78 219 0.0 0.0 0.00 0.89 0.89 64 1009.9
20260901004046 78 219 0.0 0.0 0.00 0.89 0.89 65 1009.9
20260901003545 78 219 0.0 0.0 0.00 0.89 0.89 64 1010.0
20260901003045 78 219 0.0 1.0 0.00 0.89 0.89 64 1009.9
20260901002545 79 237 0.0 1.0 0.00 0.89 0.89 63 1009.8
20260901002045 79 158 0.0 0.0 0.00 0.89 0.89 63 1009.9
20260901001809 79 348 0.0 1.0 0.00 0.89 0.89 62 1009.9
20260901001044 79 348 0.0 3.0 0.00 0.89 0.89 63 1009.9
20260901000547 79 306 1.0 3.0 0.00 0.89 0.89 59 1010.1
20260901000305 79 296 0.0 1.0 0.00 0.89 0.89 62 1010.1
20260831235545 79 295 0.0 2.0 0.00 0.89 0.89 63 1010.2
20260831235045 80 296 0.0 3.0 0.00 0.89 0.89 60 1010.2
20260831234544 80 303 1.0 3.0 0.00 0.89 0.89 59 1010.2
20260831234044 81 258 0.0 2.0 0.00 0.89 0.89 58 1010.1
20260831233543 81 220 0.0 1.0 0.00 0.89 0.89 56 1010.1
20260831233044 82 220 0.0 1.0 0.00 0.89 0.89 56 1010.1
20260831232544 82 271 0.0 1.0 0.00 0.89 0.89 57 1010.1
20260831232043 82 178 0.0 0.0 0.00 0.89 0.89 56 1010.2
20260831231544 81 196 0.0 0.0 0.00 0.89 0.89 59 1010.2
20260831231043 80 166 0.0 2.0 0.00 0.89 0.89 63 1010.3
20260831230543 79 166 0.0 4.0 0.00 0.89 0.89 62 1010.3
20260831230043 78 203 0.0 5.0 0.00 0.89 0.89 64 1010.3
20260831225542 78 195 1.0 6.0 0.00 0.89 0.89 65 1010.7
20260831225306 78 161 1.0 7.0 0.00 0.89 0.89 67 1010.5
20260831224543 77 178 1.0 7.0 0.00 0.89 0.89 67 1010.7
20260831224303 77 111 2.0 9.0 0.00 0.89 0.89 67 1010.8
20260831223543 78 137 2.0 9.0 0.00 0.89 0.89 69 1010.8
20260831223043 78 152 0.0 3.0 0.00 0.89 0.89 70 1010.8
20260831222542 78 189 0.0 2.0 0.00 0.89 0.89 70 1010.8
20260831222043 77 104 0.0 3.0 0.00 0.89 0.89 69 1010.8
20260831221801 78 140 0.0 4.0 0.00 0.89 0.89 72 1010.8
20260831221042 77 165 0.0 7.0 0.00 0.89 0.89 74 1011.0
20260831220542 77 154 2.0 7.0 0.01 0.89 0.89 72 1011.1
20260831220304 76 165 1.0 4.0 0.01 0.89 0.89 77 1011.2
20260831215542 75 124 0.0 6.0 0.02 0.89 0.89 80 1011.2
20260831215042 73 102 0.0 9.0 0.02 0.89 0.89 82 1011.3
20260831214541 73 131 1.0 9.0 0.02 0.89 0.89 80 1011.3
20260831214041 72 102 4.0 7.0 0.03 0.89 0.89 81 1011.5
20260831213541 71 83 1.0 6.0 0.03 0.89 0.89 84 1011.5
20260831213040 71 116 1.0 4.0 0.03 0.89 0.89 86 1011.6
20260831212541 70 113 0.0 0.0 0.04 0.89 0.89 88 1011.7
20260831212040 70 39 0.0 0.0 0.04 0.89 0.89 87 1012.1
20260831211806 70 39 0.0 7.0 0.05 0.89 0.89 86 1012.2
20260831211040 70 76 2.0 10.0 0.07 0.89 0.89 85 1012.2
20260831210541 69 20 4.0 10.0 0.08 0.88 0.88 85 1012.5
20260831210041 69 99 3.0 7.0 0.10 0.88 0.88 86 1012.7
20260831205800 69 109 1.0 7.0 0.10 0.87 0.87 86 1013.0
20260831205039 69 63 0.0 7.0 0.12 0.87 0.87 87 1013.3
20260831204540 69 90 3.0 9.0 0.12 0.87 0.87 87 1013.3
20260831204040 69 63 3.0 9.0 0.12 0.86 0.86 87 1013.6
20260831203539 69 93 4.0 9.0 0.13 0.86 0.86 88 1013.8
20260831203521 69 89 3.0 7.0 0.13 0.86 0.86 88 1014.1
20260831202539 69 94 0.0 3.0 0.13 0.85 0.85 89 1014.2
20260831202039 69 83 0.0 10.0 0.16 0.85 0.85 88 1014.6
20260831201540 69 72 3.0 10.0 0.17 0.84 0.84 89 1014.6
20260831201039 69 66 0.0 3.0 0.15 0.82 0.82 91 1014.9
20260831200759 69 123 0.0 6.0 0.15 0.80 0.80 90 1015.1
20260831200038 69 72 2.0 6.0 0.15 0.78 0.79 91 1015.1
20260831195539 69 90 2.0 9.0 0.24 0.77 0.77 91 1015.3
20260831195040 69 90 2.0 9.0 0.24 0.75 0.75 91 1015.5
20260831194801 69 76 2.0 6.0 0.25 0.75 0.75 90 1015.6
20260831194038 69 104 0.0 3.0 0.25 0.74 0.74 89 1015.4
20260831193538 69 66 0.0 3.0 0.27 0.73 0.73 90 1015.5
20260831193039 69 76 0.0 0.0 0.29 0.73 0.73 91 1015.5